Home > Time Zones > World Clock > Weather > Egypt > Cairo > Past weeks

Flag for Egypt Weather past 2 weeks in Cairo, Egypt

Now
52 °F

Clear.


Feels Like: 49 °F
Forecast: 53 / 82 °F
Wind: 8 mph from Northeast

Location: Cairo Airport

Current Time: Mar 6, 2015 at 6:27:30 AM

Latest Report: Mar 6, 2015 at 5:30 AM


Visibility: 10 mi

Pressure: 30.07 "Hg

Humidity: 100%

Dew point: 52 °F

Location of CairoLocation

Historic Weather in Cairo — Graph

°F

Cairo temperature yesterday

Maximum temperature yesterday: 70 °F (at 2:00 PM)
Minimum temperature yesterday: 54 °F (at 6:30 AM)
Average temperature yesterday: 61 °F

Past Weeks' High & Low Weather Summary

 TemperatureHumidityPressure
High84 °F (Feb 27, 3:30 PM)100% (Mar 6, 4:00 AM)30.21 "Hg (Mar 6, 4:00 AM)
Low43 °F (Feb 20, 2:30 AM)11% (Feb 27, 5:00 PM)29.77 "Hg (Feb 24, 3:30 AM)
Average60 °F58%30.05 "Hg
* Reported Feb 19 5:00 AM — Mar 6 5:00 AM, Cairo, Weather by CustomWeather, © 2015

Note: Actual official high and low records may vary slightly from our data, if they occured in-between our weather recording intervals... More about our weather records

Advertising

Cairo weather history for previous 24 hours

 ConditionsComfort  
Time TempWeatherWind HumidityBarometerVisibility
5:00 AM
Fri, Mar 6
52 °FClear.8 mph100%30.09 "Hg10 mi
4:30 AM52 °FClear.7 mph100%30.07 "Hg10 mi
4:00 AM52 °FClear.7 mph100%30.07 "Hg10 mi
3:30 AM54 °FClear.7 mph94%30.07 "Hg10 mi
3:00 AM54 °FClear.7 mph94%30.07 "Hg10 mi
2:30 AM54 °FClear.7 mph94%30.09 "Hg10 mi
2:00 AM55 °FClear.7 mph82%30.09 "Hg10 mi
1:30 AM55 °FClear.8 mph82%30.09 "Hg10 mi
1:00 AM55 °FClear.8 mph82%30.09 "Hg10 mi
12:30 AM55 °FClear.9 mph88%30.12 "Hg10 mi
12:00 AM55 °FClear.9 mph88%30.12 "Hg10 mi
11:30 PM
Thu, Mar 5
57 °FClear.10 mph82%30.12 "Hg10 mi
11:00 PM57 °FClear.10 mph82%30.12 "Hg10 mi
10:30 PM57 °FClear.10 mph77%30.12 "Hg10 mi
10:00 PM57 °FClear.10 mph77%30.12 "Hg10 mi
9:30 PM59 °FClear.10 mph72%30.12 "Hg10 mi
9:00 PM59 °FClear.10 mph72%30.12 "Hg10 mi
8:30 PM61 °FClear.12 mph68%30.12 "Hg10 mi
8:00 PM61 °FClear.12 mph63%30.09 "Hg10 mi
7:30 PM63 °FClear.12 mph56%30.09 "Hg10 mi
7:00 PM63 °FClear.12 mph56%30.09 "Hg10 mi
6:30 PM64 °FClear.12 mph52%30.07 "Hg10 mi
6:00 PM66 °FClear.12 mph49%30.07 "Hg10 mi
5:30 PM66 °FSunny.12 mph49%30.07 "Hg10 mi
5:00 PM68 °FSunny.12 mph46%30.07 "Hg10 mi
4:30 PM68 °FPassing clouds.10 mph46%30.07 "HgN/A
4:00 PM70 °FPassing clouds.12 mph43%30.07 "HgN/A
3:30 PM70 °FPartly sunny.9 mph43%30.07 "HgN/A
3:00 PM70 °FPartly sunny.9 mph43%30.07 "HgN/A
2:30 PM70 °FPartly sunny.9 mph43%30.07 "HgN/A
2:00 PM70 °FPartly sunny.10 mph46%30.09 "HgN/A
1:30 PM68 °FPartly sunny.8 mph46%30.09 "HgN/A
1:00 PM68 °FPartly sunny.8 mph49%30.09 "HgN/A
12:30 PM66 °FPartly sunny.9 mph52%30.12 "HgN/A
12:00 PM66 °FPartly sunny.9 mph52%30.12 "HgN/A
11:30 AM64 °FBroken clouds.8 mph60%30.12 "HgN/A
11:00 AM64 °FBroken clouds.8 mph60%30.12 "HgN/A
10:30 AM61 °FBroken clouds.7 mph77%30.15 "Hg4 mi
10:00 AM61 °FBroken clouds.7 mph77%30.15 "Hg4 mi
9:30 AM59 °FFog.3 mph82%30.15 "Hg2 mi
9:00 AM59 °FFog.3 mph82%30.15 "Hg2 mi
8:30 AM55 °FFog.No wind88%30.15 "Hg1 mi
8:00 AM55 °FFog.No wind88%30.15 "Hg1 mi
7:30 AM54 °FFog.No wind88%30.12 "Hg1 mi
7:00 AM54 °FFog.No wind88%30.12 "Hg1 mi
6:30 AM54 °FFog.No wind88%30.12 "Hg1 mi
Weather by CustomWeather, © 2015

See weather overviewHow to use our weather pages